| time (UTC) | temp C | wind direction | speed KPH | gust KPH | rain 1hr cm | rain 24hr cm | rain mn cm | humidity % | barometer mb |
| 20260506023604 | -5 | 276 | 0.0 | 0.0 | 0.00 | 0.00 | 0.00 | 90 | 1015.8 |
| 20260506023104 | -5 | 276 | 0.0 | 0.0 | 0.00 | 0.00 | 0.00 | 90 | 1015.8 |
| 20260506022605 | -5 | 276 | 0.0 | 0.0 | 0.00 | 0.00 | 0.00 | 91 | 1015.9 |
| 20260506022104 | -5 | 276 | 0.0 | 0.0 | 0.00 | 0.00 | 0.00 | 91 | 1015.9 |
| 20260506021604 | -5 | 276 | 0.0 | 0.0 | 0.00 | 0.00 | 0.00 | 91 | 1015.9 |
| 20260506021105 | -5 | 276 | 0.0 | 0.0 | 0.00 | 0.00 | 0.00 | 91 | 1015.9 |
| 20260506020605 | -5 | 276 | 0.0 | 0.0 | 0.00 | 0.00 | 0.00 | 91 | 1016.0 |
| 20260506020105 | -5 | 276 | 0.0 | 0.0 | 0.00 | 0.00 | 0.00 | 91 | 1016.0 |
| 20260506015105 | -5 | 276 | 0.0 | 0.0 | 0.00 | 0.00 | 0.00 | 91 | 1015.9 |
| 20260506014605 | -5 | 276 | 0.0 | 0.0 | 0.00 | 0.00 | 0.00 | 90 | 1015.9 |
| 20260506014104 | -5 | 276 | 0.0 | 0.0 | 0.00 | 0.00 | 0.00 | 90 | 1015.9 |
| 20260506013605 | -5 | 276 | 0.0 | 0.0 | 0.00 | 0.00 | 0.00 | 90 | 1015.8 |
| 20260506012604 | -5 | 276 | 0.0 | 0.0 | 0.00 | 0.00 | 0.00 | 90 | 1015.8 |
| 20260506012104 | -5 | 276 | 0.0 | 0.0 | 0.00 | 0.00 | 0.00 | 90 | 1015.8 |
| 20260506011605 | -5 | 276 | 0.0 | 0.0 | 0.00 | 0.00 | 0.00 | 90 | 1015.8 |
| 20260506010604 | -5 | 276 | 0.0 | 0.0 | 0.00 | 0.00 | 0.00 | 90 | 1015.9 |
| 20260506010104 | -5 | 276 | 0.0 | 0.0 | 0.00 | 0.00 | 0.00 | 89 | 1015.9 |
| 20260506005604 | -5 | 276 | 0.0 | 0.0 | 0.00 | 0.00 | 0.00 | 89 | 1015.9 |
| 20260506004604 | -4 | 276 | 0.0 | 0.0 | 0.00 | 0.00 | 0.00 | 89 | 1015.8 |
| 20260506004104 | -4 | 276 | 0.0 | 0.0 | 0.00 | 0.00 | 0.00 | 89 | 1015.8 |
| 20260506002604 | -4 | 276 | 0.0 | 0.0 | 0.00 | 0.00 | 0.00 | 88 | 1015.8 |
| 20260506002104 | -3 | 276 | 0.0 | 0.0 | 0.00 | 0.00 | 0.00 | 88 | 1015.7 |
| 20260506001605 | -3 | 276 | 0.0 | 0.0 | 0.00 | 0.00 | 0.00 | 88 | 1015.7 |
| 20260506001104 | -3 | 276 | 0.0 | 0.0 | 0.00 | 0.00 | 0.00 | 88 | 1015.7 |
| 20260506000604 | -3 | 276 | 0.0 | 0.0 | 0.00 | 0.00 | 0.00 | 87 | 1015.7 |
| 20260506000104 | -3 | 276 | 0.0 | 0.0 | 0.00 | 0.00 | 0.00 | 87 | 1015.6 |
| 20260505235605 | -3 | 276 | 0.0 | 0.0 | 0.00 | 0.00 | 0.00 | 87 | 1015.6 |
| 20260505235104 | -3 | 276 | 0.0 | 0.0 | 0.00 | 0.00 | 0.00 | 86 | 1015.7 |
| 20260505234604 | -3 | 276 | 0.0 | 0.0 | 0.00 | 0.00 | 0.00 | 86 | 1015.6 |
| 20260505234105 | -3 | 276 | 0.0 | 0.0 | 0.00 | 0.00 | 0.00 | 85 | 1015.5 |
| 20260505233605 | -2 | 276 | 0.0 | 0.0 | 0.00 | 0.00 | 0.00 | 85 | 1015.4 |
| 20260505233104 | -2 | 276 | 0.0 | 0.0 | 0.00 | 0.00 | 0.00 | 84 | 1015.4 |
| 20260505232105 | -2 | 276 | 0.0 | 0.0 | 0.00 | 0.00 | 0.00 | 82 | 1015.5 |
| 20260505231605 | -2 | 276 | 0.0 | 4.8 | 0.00 | 0.00 | 0.00 | 82 | 1015.4 |
| 20260505231104 | -2 | 276 | 1.6 | 4.8 | 0.00 | 0.00 | 0.00 | 83 | 1015.4 |
| 20260505230604 | -2 | 277 | 0.0 | 0.0 | 0.00 | 0.00 | 0.00 | 82 | 1015.4 |
| 20260505225604 | -2 | 277 | 0.0 | 4.8 | 0.00 | 0.00 | 0.00 | 82 | 1015.5 |
| 20260505225105 | -1 | 277 | 0.0 | 4.8 | 0.00 | 0.00 | 0.00 | 82 | 1015.4 |
| 20260505224604 | -1 | 277 | 0.0 | 0.0 | 0.00 | 0.00 | 0.00 | 81 | 1015.4 |
| 20260505224104 | -1 | 277 | 0.0 | 0.0 | 0.00 | 0.00 | 0.00 | 80 | 1015.4 |
| 20260505223605 | -1 | 277 | 0.0 | 0.0 | 0.00 | 0.00 | 0.00 | 78 | 1015.4 |
| 20260505222604 | -1 | 277 | 3.2 | 4.8 | 0.00 | 0.00 | 0.00 | 79 | 1015.3 |
| 20260505222104 | -1 | 279 | 1.6 | 4.8 | 0.00 | 0.00 | 0.00 | 79 | 1015.3 |
| 20260505221604 | -1 | 277 | 1.6 | 4.8 | 0.00 | 0.00 | 0.00 | 79 | 1015.4 |
| 20260505221104 | -1 | 278 | 0.0 | 0.0 | 0.00 | 0.00 | 0.00 | 78 | 1015.4 |
| 20260505220604 | 0 | 277 | 0.0 | 0.0 | 0.00 | 0.00 | 0.00 | 78 | 1015.3 |
| 20260505220104 | 0 | 277 | 1.6 | 4.8 | 0.00 | 0.00 | 0.00 | 76 | 1015.4 |
| 20260505215604 | 0 | 277 | 1.6 | 4.8 | 0.00 | 0.00 | 0.00 | 76 | 1015.4 |
| 20260505215105 | 0 | 277 | 1.6 | 4.8 | 0.00 | 0.00 | 0.00 | 77 | 1015.5 |
| 20260505214604 | 0 | 277 | 3.2 | 8.0 | 0.00 | 0.00 | 0.00 | 78 | 1015.5 |
| 20260505214104 | 0 | 268 | 1.6 | 4.8 | 0.00 | 0.00 | 0.00 | 79 | 1015.4 |
| 20260505213604 | 0 | 266 | 0.0 | 4.8 | 0.00 | 0.00 | 0.00 | 79 | 1015.4 |
| 20260505213105 | 0 | 264 | 0.0 | 4.8 | 0.00 | 0.00 | 0.00 | 79 | 1015.5 |
| 20260505212604 | 0 | 264 | 0.0 | 3.2 | 0.00 | 0.00 | 0.00 | 80 | 1015.5 |
| 20260505212104 | 0 | 264 | 0.0 | 0.0 | 0.00 | 0.00 | 0.00 | 80 | 1015.6 |
| 20260505211605 | 0 | 265 | 0.0 | 0.0 | 0.00 | 0.00 | 0.00 | 79 | 1015.5 |
| 20260505211104 | 0 | 264 | 0.0 | 0.0 | 0.00 | 0.00 | 0.00 | 79 | 1015.5 |
| 20260505210604 | 0 | 264 | 0.0 | 0.0 | 0.00 | 0.00 | 0.00 | 79 | 1015.5 |
| 20260505210104 | 0 | 264 | 1.6 | 4.8 | 0.00 | 0.00 | 0.00 | 79 | 1015.5 |
| 20260505205604 | 0 | 262 | 3.2 | 4.8 | 0.00 | 0.00 | 0.00 | 78 | 1015.4 |
| 20260505205104 | 0 | 177 | 0.0 | 4.8 | 0.00 | 0.00 | 0.00 | 77 | 1015.3 |
| 20260505204605 | 0 | 158 | 0.0 | 4.8 | 0.00 | 0.00 | 0.00 | 78 | 1015.3 |
| 20260505204104 | 0 | 151 | 4.8 | 11.3 | 0.00 | 0.00 | 0.00 | 77 | 1015.3 |
| 20260505203105 | 0 | 253 | 0.0 | 0.0 | 0.00 | 0.00 | 0.00 | 76 | 1015.1 |
| 20260505202604 | 0 | 254 | 0.0 | 0.0 | 0.00 | 0.00 | 0.00 | 76 | 1015.1 |
| 20260505202104 | 0 | 254 | 0.0 | 0.0 | 0.00 | 0.00 | 0.00 | 77 | 1015.2 |
| 20260505201104 | 0 | 254 | 0.0 | 0.0 | 0.00 | 0.00 | 0.00 | 76 | 1015.2 |
| 20260505200604 | 0 | 254 | 0.0 | 0.0 | 0.00 | 0.00 | 0.00 | 76 | 1015.2 |
| 20260505200104 | 0 | 254 | 0.0 | 0.0 | 0.00 | 0.00 | 0.00 | 75 | 1015.2 |
| 20260505195605 | 0 | 256 | 1.6 | 4.8 | 0.00 | 0.00 | 0.00 | 75 | 1015.1 |
| 20260505195104 | 0 | 253 | 0.0 | 0.0 | 0.00 | 0.00 | 0.00 | 75 | 1015.1 |
| 20260505194604 | 0 | 253 | 0.0 | 0.0 | 0.00 | 0.00 | 0.00 | 74 | 1015.0 |
| 20260505194105 | 0 | 253 | 0.0 | 0.0 | 0.00 | 0.00 | 0.00 | 73 | 1015.1 |
| 20260505193604 | 0 | 253 | 0.0 | 0.0 | 0.00 | 0.00 | 0.00 | 73 | 1015.0 |
| 20260505193104 | 1 | 253 | 0.0 | 0.0 | 0.00 | 0.00 | 0.00 | 72 | 1015.0 |
| 20260505192105 | 1 | 253 | 1.6 | 4.8 | 0.00 | 0.00 | 0.00 | 70 | 1015.0 |
| 20260505191604 | 1 | 226 | 0.0 | 4.8 | 0.00 | 0.00 | 0.00 | 69 | 1015.0 |
| 20260505191104 | 1 | 226 | 6.4 | 12.9 | 0.00 | 0.00 | 0.00 | 69 | 1014.9 |
| 20260505190605 | 1 | 195 | 3.2 | 11.3 | 0.00 | 0.00 | 0.00 | 69 | 1014.8 |
| 20260505190104 | 1 | 288 | 1.6 | 8.0 | 0.00 | 0.00 | 0.00 | 69 | 1014.8 |
| 20260505185605 | 1 | 275 | 0.0 | 9.7 | 0.00 | 0.00 | 0.00 | 69 | 1014.8 |
| 20260505185104 | 1 | 278 | 3.2 | 4.8 | 0.00 | 0.00 | 0.00 | 68 | 1014.8 |
| 20260505184604 | 1 | 233 | 0.0 | 4.8 | 0.00 | 0.00 | 0.00 | 68 | 1014.7 |
| 20260505184105 | 1 | 239 | 4.8 | 16.1 | 0.00 | 0.00 | 0.00 | 68 | 1014.6 |
| 20260505183604 | 1 | 198 | 4.8 | 19.3 | 0.00 | 0.00 | 0.00 | 68 | 1014.5 |
| 20260505183105 | 1 | 221 | 3.2 | 11.3 | 0.00 | 0.00 | 0.00 | 68 | 1014.5 |
| 20260505182104 | 1 | 247 | 3.2 | 19.3 | 0.00 | 0.00 | 0.00 | 69 | 1014.4 |
| 20260505181105 | 2 | 256 | 6.4 | 16.1 | 0.00 | 0.00 | 0.00 | 68 | 1014.4 |
| 20260505180604 | 2 | 207 | 6.4 | 19.3 | 0.00 | 0.00 | 0.00 | 69 | 1014.4 |
| 20260505180104 | 2 | 198 | 3.2 | 11.3 | 0.00 | 0.00 | 0.00 | 69 | 1014.5 |
| 20260505175605 | 2 | 212 | 3.2 | 16.1 | 0.00 | 0.00 | 0.00 | 68 | 1014.5 |
| 20260505175104 | 2 | 240 | 6.4 | 16.1 | 0.00 | 0.00 | 0.00 | 69 | 1014.5 |
| 20260505174604 | 2 | 204 | 1.6 | 16.1 | 0.00 | 0.00 | 0.00 | 68 | 1014.4 |
| 20260505174105 | 2 | 294 | 1.6 | 20.9 | 0.00 | 0.00 | 0.00 | 68 | 1014.4 |
| 20260505173604 | 2 | 239 | 11.3 | 22.5 | 0.00 | 0.00 | 0.00 | 69 | 1014.4 |
| 20260505173104 | 2 | 204 | 3.2 | 19.3 | 0.00 | 0.00 | 0.00 | 70 | 1014.4 |
| 20260505172604 | 2 | 211 | 9.7 | 24.1 | 0.00 | 0.00 | 0.00 | 70 | 1014.4 |
| 20260505172105 | 2 | 214 | 9.7 | 25.7 | 0.00 | 0.00 | 0.00 | 71 | 1014.4 |
| 20260505171604 | 2 | 219 | 9.7 | 24.1 | 0.00 | 0.00 | 0.00 | 70 | 1014.4 |
| 20260505171104 | 2 | 208 | 14.5 | 25.7 | 0.00 | 0.00 | 0.00 | 68 | 1014.4 |
| 20260505170604 | 2 | 230 | 8.0 | 20.9 | 0.00 | 0.00 | 0.00 | 66 | 1014.3 |
| 20260505170104 | 2 | 223 | 12.9 | 25.7 | 0.00 | 0.00 | 0.00 | 66 | 1014.3 |
| 20260505165604 | 3 | 236 | 9.7 | 20.9 | 0.00 | 0.00 | 0.00 | 67 | 1014.3 |
| 20260505165104 | 3 | 224 | 11.3 | 19.3 | 0.00 | 0.00 | 0.00 | 66 | 1014.3 |
| 20260505164105 | 3 | 219 | 11.3 | 24.1 | 0.00 | 0.00 | 0.00 | 65 | 1014.3 |
| 20260505163604 | 3 | 203 | 3.2 | 11.3 | 0.00 | 0.00 | 0.00 | 67 | 1014.2 |
| 20260505163105 | 3 | 206 | 8.0 | 19.3 | 0.00 | 0.00 | 0.00 | 66 | 1014.2 |
| 20260505162605 | 3 | 227 | 14.5 | 22.5 | 0.00 | 0.00 | 0.00 | 65 | 1014.2 |
| 20260505162104 | 3 | 222 | 11.3 | 25.7 | 0.00 | 0.00 | 0.00 | 65 | 1014.1 |
| 20260505161604 | 3 | 184 | 8.0 | 20.9 | 0.00 | 0.00 | 0.00 | 65 | 1014.2 |
| 20260505160104 | 2 | 224 | 4.8 | 11.3 | 0.00 | 0.00 | 0.00 | 71 | 1014.3 |
| 20260505153104 | 3 | 217 | 9.7 | 19.3 | 0.00 | 0.00 | 0.00 | 71 | 1014.5 |
| 20260505152604 | 3 | 222 | 4.8 | 19.3 | 0.00 | 0.00 | 0.00 | 72 | 1014.5 |
| 20260505152104 | 3 | 188 | 8.0 | 16.1 | 0.00 | 0.00 | 0.00 | 74 | 1014.4 |
| 20260505151104 | 2 | 222 | 9.7 | 20.9 | 0.00 | 0.00 | 0.00 | 73 | 1014.5 |
| 20260505150604 | 3 | 233 | 11.3 | 19.3 | 0.00 | 0.00 | 0.00 | 74 | 1014.5 |
| 20260505150105 | 3 | 229 | 11.3 | 20.9 | 0.00 | 0.00 | 0.00 | 73 | 1014.5 |
| 20260505140604 | 3 | 261 | 11.3 | 22.5 | 0.00 | 0.00 | 0.00 | 67 | 1014.3 |
| 20260505140104 | 3 | 246 | 14.5 | 24.1 | 0.00 | 0.00 | 0.00 | 67 | 1014.3 |
| 20260505130104 | 3 | 239 | 14.5 | 22.5 | 0.00 | 0.00 | 0.00 | 63 | 1014.3 |
| 20260505124604 | 3 | 223 | 6.4 | 16.1 | 0.00 | 0.00 | 0.00 | 63 | 1014.2 |
| 20260505123604 | 3 | 228 | 9.7 | 24.1 | 0.00 | 0.00 | 0.00 | 60 | 1014.1 |
| 20260505123104 | 3 | 257 | 12.9 | 20.9 | 0.00 | 0.00 | 0.00 | 59 | 1014.1 |
| 20260505122604 | 3 | 171 | 4.8 | 20.9 | 0.00 | 0.00 | 0.00 | 58 | 1014.1 |
| 20260505122104 | 4 | 184 | 11.3 | 20.9 | 0.00 | 0.00 | 0.00 | 57 | 1014.0 |
| 20260505121605 | 5 | 171 | 11.3 | 27.4 | 0.00 | 0.00 | 0.00 | 59 | 1014.0 |
| 20260505121105 | 4 | 232 | 8.0 | 19.3 | 0.00 | 0.00 | 0.00 | 59 | 1014.1 |
| 20260505120604 | 4 | 237 | 9.7 | 19.3 | 0.00 | 0.00 | 0.00 | 62 | 1014.0 |
| 20260505120104 | 3 | 235 | 14.5 | 27.4 | 0.00 | 0.00 | 0.00 | 61 | 1014.1 |
| 20260505115604 | 3 | 229 | 6.4 | 16.1 | 0.00 | 0.00 | 0.00 | 60 | 1014.2 |
| 20260505115105 | 3 | 204 | 9.7 | 20.9 | 0.00 | 0.00 | 0.00 | 60 | 1014.1 |
| 20260505114604 | 3 | 194 | 9.7 | 22.5 | 0.00 | 0.00 | 0.00 | 58 | 1014.1 |
| 20260505114104 | 3 | 225 | 9.7 | 20.9 | 0.00 | 0.00 | 0.00 | 58 | 1014.0 |
| 20260505113104 | 4 | 221 | 9.7 | 19.3 | 0.00 | 0.00 | 0.00 | 58 | 1014.0 |
| 20260505112604 | 4 | 227 | 0.0 | 4.8 | 0.00 | 0.00 | 0.00 | 64 | 1013.9 |
| 20260505112104 | 3 | 276 | 1.6 | 4.8 | 0.00 | 0.00 | 0.00 | 62 | 1013.8 |
| 20260505111604 | 3 | 222 | 3.2 | 14.5 | 0.00 | 0.00 | 0.00 | 61 | 1013.9 |
| 20260505111104 | 3 | 164 | 3.2 | 9.7 | 0.00 | 0.00 | 0.00 | 61 | 1013.9 |
| 20260505110604 | 2 | 196 | 1.6 | 14.5 | 0.00 | 0.00 | 0.00 | 63 | 1014.0 |
| 20260505110104 | 2 | 227 | 9.7 | 16.1 | 0.00 | 0.00 | 0.00 | 64 | 1014.0 |
| 20260505102104 | 3 | 228 | 4.8 | 20.9 | 0.00 | 0.00 | 0.00 | 64 | 1014.1 |
| 20260505101604 | 3 | 213 | 4.8 | 19.3 | 0.00 | 0.00 | 0.00 | 64 | 1014.0 |
| 20260505100604 | 2 | 213 | 4.8 | 16.1 | 0.00 | 0.00 | 0.00 | 64 | 1014.0 |
| 20260505100104 | 2 | 226 | 4.8 | 19.3 | 0.00 | 0.00 | 0.00 | 63 | 1014.0 |
| 20260505095604 | 2 | 234 | 11.3 | 19.3 | 0.00 | 0.00 | 0.00 | 60 | 1013.9 |
| 20260505094604 | 2 | 228 | 1.6 | 9.7 | 0.00 | 0.00 | 0.00 | 64 | 1013.8 |
| 20260505094105 | 2 | 277 | 3.2 | 12.9 | 0.00 | 0.00 | 0.00 | 64 | 1013.9 |
| 20260505093605 | 2 | 293 | 0.0 | 12.9 | 0.00 | 0.00 | 0.00 | 63 | 1014.0 |
| 20260505092604 | 2 | 305 | 0.0 | 12.9 | 0.00 | 0.00 | 0.00 | 64 | 1014.2 |
| 20260505092105 | 2 | 349 | 9.7 | 14.5 | 0.00 | 0.00 | 0.00 | 63 | 1014.1 |
| 20260505091605 | 2 | 161 | 6.4 | 19.3 | 0.00 | 0.00 | 0.00 | 62 | 1014.1 |
| 20260505091105 | 2 | 329 | 8.0 | 14.5 | 0.00 | 0.00 | 0.00 | 63 | 1014.1 |
| 20260505090604 | 2 | 301 | 1.6 | 14.5 | 0.00 | 0.00 | 0.00 | 61 | 1014.0 |
| 20260505090104 | 2 | 224 | 3.2 | 16.1 | 0.00 | 0.00 | 0.00 | 62 | 1013.9 |
| 20260505085605 | 2 | 354 | 4.8 | 9.7 | 0.00 | 0.00 | 0.00 | 65 | 1013.9 |
| 20260505085104 | 2 | 240 | 3.2 | 11.3 | 0.00 | 0.00 | 0.00 | 65 | 1013.9 |
| 20260505084605 | 2 | 287 | 6.4 | 16.1 | 0.00 | 0.00 | 0.00 | 63 | 1013.9 |
| 20260505084104 | 2 | 283 | 3.2 | 19.3 | 0.00 | 0.00 | 0.00 | 66 | 1013.9 |
| 20260505083604 | 2 | 233 | 9.7 | 19.3 | 0.00 | 0.00 | 0.00 | 65 | 1013.8 |
| 20260505083105 | 1 | 235 | 9.7 | 16.1 | 0.00 | 0.00 | 0.00 | 64 | 1013.8 |
| 20260505082604 | 2 | 217 | 8.0 | 19.3 | 0.00 | 0.00 | 0.00 | 63 | 1013.8 |
| 20260505081605 | 2 | 279 | 4.8 | 12.9 | 0.00 | 0.00 | 0.00 | 62 | 1013.7 |
| 20260505081104 | 2 | 298 | 8.0 | 16.1 | 0.00 | 0.00 | 0.00 | 67 | 1013.7 |
| 20260505080604 | 2 | 326 | 6.4 | 19.3 | 0.00 | 0.00 | 0.00 | 66 | 1013.6 |
| 20260505080105 | 2 | 229 | 11.3 | 16.1 | 0.00 | 0.00 | 0.00 | 65 | 1013.5 |
| 20260505075604 | 1 | 236 | 1.6 | 16.1 | 0.00 | 0.00 | 0.00 | 70 | 1013.5 |
| 20260505075105 | 1 | 230 | 8.0 | 19.3 | 0.00 | 0.00 | 0.00 | 67 | 1013.4 |
| 20260505074604 | 1 | 167 | 4.8 | 16.1 | 0.00 | 0.00 | 0.00 | 67 | 1013.4 |
| 20260505074104 | 1 | 251 | 6.4 | 11.3 | 0.00 | 0.00 | 0.00 | 69 | 1013.4 |
| 20260505073605 | 1 | 233 | 1.6 | 14.5 | 0.00 | 0.00 | 0.00 | 73 | 1013.3 |
| 20260505073104 | 1 | 234 | 4.8 | 16.1 | 0.00 | 0.00 | 0.00 | 72 | 1013.4 |
| 20260505072605 | 1 | 254 | 8.0 | 19.3 | 0.00 | 0.00 | 0.00 | 72 | 1013.4 |
| 20260505072105 | 1 | 230 | 11.3 | 19.3 | 0.00 | 0.00 | 0.00 | 71 | 1013.4 |
| 20260505071604 | 1 | 307 | 1.6 | 11.3 | 0.00 | 0.00 | 0.00 | 72 | 1013.4 |
| 20260505071104 | 1 | 326 | 8.0 | 14.5 | 0.00 | 0.00 | 0.00 | 70 | 1013.5 |
| 20260505070604 | 1 | 305 | 4.8 | 11.3 | 0.00 | 0.00 | 0.00 | 74 | 1013.5 |
| 20260505065104 | 0 | 216 | 6.4 | 12.9 | 0.00 | 0.00 | 0.00 | 75 | 1013.6 |
| 20260505064605 | 0 | 219 | 6.4 | 12.9 | 0.00 | 0.00 | 0.00 | 73 | 1013.6 |
| 20260505064104 | 0 | 297 | 9.7 | 19.3 | 0.00 | 0.00 | 0.00 | 72 | 1013.7 |
| 20260505063604 | 0 | 233 | 11.3 | 19.3 | 0.00 | 0.00 | 0.00 | 72 | 1013.6 |
| 20260505063104 | 0 | 270 | 1.6 | 9.7 | 0.00 | 0.00 | 0.00 | 75 | 1013.6 |
| 20260505062605 | 0 | 254 | 8.0 | 16.1 | 0.00 | 0.00 | 0.00 | 74 | 1013.6 |
| 20260505062104 | 0 | 237 | 3.2 | 11.3 | 0.00 | 0.00 | 0.00 | 73 | 1013.6 |
| 20260505061604 | 0 | 302 | 11.3 | 19.3 | 0.00 | 0.00 | 0.00 | 73 | 1013.6 |
| 20260505061104 | 0 | 348 | 3.2 | 11.3 | 0.00 | 0.00 | 0.00 | 72 | 1013.7 |
| 20260505060604 | 0 | 292 | 0.0 | 0.0 | 0.00 | 0.00 | 0.00 | 74 | 1013.7 |
| 20260505060105 | 0 | 291 | 1.6 | 12.9 | 0.00 | 0.00 | 0.00 | 74 | 1013.7 |
| 20260505055105 | 0 | 299 | 4.8 | 9.7 | 0.00 | 0.00 | 0.00 | 75 | 1013.6 |
| 20260505054604 | 0 | 263 | 0.0 | 16.1 | 0.00 | 0.00 | 0.00 | 77 | 1013.7 |
| 20260505054105 | 0 | 297 | 0.0 | 0.0 | 0.00 | 0.00 | 0.00 | 79 | 1013.7 |
| 20260505053604 | -1 | 297 | 0.0 | 0.0 | 0.00 | 0.00 | 0.00 | 81 | 1013.6 |
| 20260505053105 | -1 | 297 | 0.0 | 0.0 | 0.00 | 0.00 | 0.00 | 81 | 1013.5 |
| 20260505052605 | -1 | 296 | 0.0 | 0.0 | 0.00 | 0.00 | 0.00 | 81 | 1013.5 |
| 20260505052104 | -1 | 297 | 0.0 | 0.0 | 0.00 | 0.00 | 0.00 | 81 | 1013.5 |
| 20260505051605 | -1 | 296 | 0.0 | 0.0 | 0.00 | 0.00 | 0.00 | 80 | 1013.5 |
| 20260505051104 | -1 | 296 | 0.0 | 0.0 | 0.00 | 0.00 | 0.00 | 80 | 1013.4 |
| 20260505050604 | -1 | 296 | 0.0 | 0.0 | 0.00 | 0.00 | 0.00 | 80 | 1013.3 |
| 20260505050105 | -1 | 297 | 0.0 | 3.2 | 0.00 | 0.00 | 0.00 | 79 | 1013.3 |
| 20260505041604 | -1 | 296 | 3.2 | 8.0 | 0.00 | 0.00 | 0.00 | 80 | 1013.2 |
| 20260505041105 | -1 | 296 | 1.6 | 8.0 | 0.00 | 0.00 | 0.00 | 80 | 1013.1 |
| 20260505040604 | -1 | 296 | 0.0 | 0.0 | 0.00 | 0.00 | 0.00 | 80 | 1013.1 |
| 20260505035604 | -1 | 296 | 0.0 | 0.0 | 0.00 | 0.00 | 0.00 | 80 | 1013.1 |
| 20260505035104 | -1 | 296 | 0.0 | 0.0 | 0.00 | 0.00 | 0.00 | 80 | 1013.0 |
| 20260505034604 | -1 | 296 | 0.0 | 0.0 | 0.00 | 0.00 | 0.00 | 80 | 1013.0 |
| 20260505034104 | -1 | 296 | 0.0 | 3.2 | 0.00 | 0.00 | 0.00 | 81 | 1013.0 |
| 20260505033605 | -1 | 296 | 3.2 | 8.0 | 0.00 | 0.00 | 0.00 | 83 | 1013.0 |
| 20260505033104 | -2 | 283 | 0.0 | 4.8 | 0.00 | 0.00 | 0.00 | 84 | 1013.0 |
| 20260505032604 | -2 | 286 | 1.6 | 4.8 | 0.00 | 0.00 | 0.00 | 85 | 1012.9 |
| 20260505032105 | -2 | 280 | 0.0 | 0.0 | 0.00 | 0.00 | 0.00 | 84 | 1012.9 |
| 20260505031604 | -2 | 280 | 0.0 | 0.0 | 0.00 | 0.00 | 0.00 | 84 | 1012.9 |
| 20260505031104 | -2 | 280 | 0.0 | 0.0 | 0.00 | 0.00 | 0.00 | 83 | 1012.8 |
| 20260505030605 | -2 | 280 | 0.0 | 0.0 | 0.00 | 0.00 | 0.00 | 83 | 1012.8 |
| 20260505025604 | -2 | 280 | 0.0 | 0.0 | 0.00 | 0.00 | 0.00 | 83 | 1012.8 |
| 20260505025104 | -2 | 280 | 0.0 | 0.0 | 0.00 | 0.00 | 0.00 | 82 | 1012.8 |
| 20260505024604 | -2 | 280 | 0.0 | 1.6 | 0.00 | 0.00 | 0.00 | 81 | 1012.8 |
| 20260505024104 | -2 | 280 | 0.0 | 0.0 | 0.00 | 0.00 | 0.00 | 81 | 1012.8 |